Showing default

MEASAT 3B, 40147

Orbit data source: Space-Track

MEASAT 3B, 40147 is a payload satellite owned by Measat (MY) in GEO that was launched on Thu, 11 Sep 2014 UTC via an ARIANE 5ECA launch vehicle from the French Guiana (FRGUI). Payload-class satellites include a variety of spacecraft equipped with specific instruments for various scientific and technological missions. These include communications satellites like Starlink; space stations such as the ISS; scientific satellites like the Hubble; Earth observation satellites from companies like Planet Labs, Umbra, and HawkEye 360; GPS; miniature CubeSats for education and research; and military/defense satellites.

Not visible in the next 10 days
Identifier
40147, 2014-054B
Orbit
GEO
Country
Flag of MYMY / MALA
Related business
Manufacturer
Airbus/Toulouse
Mission
Operational Commercial Communications
Bus & Motor
EUROSTAR 3000, R-4D?
Mass
5,897 kg wet, ~3,000 kg dry
Launch date (UTC)
2014-09-11 (12 years ago)
Launch vehicle
ARIANE 5ECA
Launch site
French Guiana (FRGUI)
Object type
Payload
Rocket body
Debris
Shape & HBR
Box + 2 Pan, 17.2 m
Radar Cross Section
41.860 m², Large (>1 m²)

Expand to show TLE details & history
Last TLE update: 2 days ago

TLE from 2 days ago
0 MEASAT 3B
1 40147U 14054B   26171.33878891 -.00000247  00000-0  00000+0 0  9997
2 40147   0.0309  28.9853 0002872  40.5543  52.4961  1.00277376 42944
Epoch: 2026-06-20T08:07Z
TLE epoch observation values (Epoch: 2026-06-20T08:07:51.361Z)
Latitude
0.04737°
Longitude
91.55536°
Altitude
35,777.096 km
Speed
3.075 km/s
True Right ascension
08h 08m 17s
True Declination
0° 02' 50"
Sunlit
Object was in daylight at epoch
Visualization orbit readout
Latitude
Unknown
Longitude
Unknown
Altitude
Unknown
Speed
Unknown
Apparent Right ascension
Unknown
Apparent Declination
Unknown
Sunlit
N/A
Visualization observer readout
Local Sidereal Time
21:35:15
Azimuth
Unknown
Elevation
Unknown
Doppler factor
Unknown
Orbital elements
Apogee altitude
35,798.208 km
Perigee altitude
35,773.989 km
Semi-major axis
42,164.235 km
Eccentricity
0.00029
Inclination
0.0309°
RAAN
28.9853°
Arg. of periapsis
40.5543°
True anomaly
52.52221°
Mean anomaly
52.4961°
Eccentric anomaly
52.50916°
Mean motion
0.25068 °/min
Orbital period
1,436.07 mins
BSTAR
0
Loading maneuver chart data...
Computing Atmospheric mass density...
Loading historical data...
Loading historical data...
Loading historical data...
Loading historical data...
Loading historical data...
Loading historical data...
Loading historical data...
Other satellites on launch #54 in the year 2014 (2014-09-11 UTC)

Documentation

Showing up to 5 results
|